Showing default

BEIDOU IGSO-6, 41434

Orbit data source: Space-Track

BEIDOU IGSO-6, 41434 is a payload satellite owned by CNSA (CN) that was launched on Tue, 29 Mar 2016 UTC via a CHANG ZHENG 3A launch vehicle from the Xichang Space Center, China (XSC). Payload-class satellites include a variety of spacecraft equipped with specific instruments for various scientific and technological missions. These include communications satellites like Starlink; space stations such as the ISS; scientific satellites like the Hubble; Earth observation satellites from companies like Planet Labs, Umbra, and HawkEye 360; GPS; miniature CubeSats for education and research; and military/defense satellites.

Not visible in the next 10 days
Identifier
41434, 2016-021A
Orbit
Active
Country
Flag of CNCN / PRC
Related business
Manufacturer
CAST
Mission
Operational Defense Navigation
Bus & Motor
DFH-3, FY-25
Mass
2,300 kg wet, 1,300 kg dry
Launch date (UTC)
2016-03-29 (9 years ago)
Launch vehicle
CHANG ZHENG 3A
Launch site
Xichang Space Center, China (XSC)
Object type
Payload
Rocket body
Debris
Shape & HBR
Box + 2 Pan, 9.0 m
Radar Cross Section
13.998 m², Large (>1 m²)

Expand to show TLE details & history
Last TLE update: 3 days ago

TLE from 3 days ago
0 BEIDOU IGSO-6
1 41434U 16021A   25256.36552899 -.00000149  00000-0  00000-0 0  9998
2 41434  59.8418  40.8010 0056092 227.7226 311.2781  1.00270285 34708
Epoch: 2025-09-13T08:46Z
TLE epoch observation values (Epoch: 2025-09-13T08:46:21.704Z)
Latitude
1.23008°
Longitude
95.86532°
Altitude
35,632.18 km
Speed
3.086 km/s
True Right ascension
14h 40m 13s
True Declination
1° 13' 44"
Sunlit
Object was in daylight at epoch
Visualization orbit readout
Latitude
Unknown
Longitude
Unknown
Altitude
Unknown
Speed
Unknown
Apparent Right ascension
Unknown
Apparent Declination
Unknown
Sunlit
N/A
Visualization observer readout
Local Sidereal Time
13:58:21
Azimuth
Unknown
Elevation
Unknown
Doppler factor
Unknown
Orbital elements
Apogee altitude
36,023.427 km
Perigee altitude
35,550.402 km
Semi-major axis
42,165.052 km
Eccentricity
0.00561
Inclination
59.8418°
RAAN
40.801°
Arg. of periapsis
227.7226°
True anomaly
310.79281°
Mean anomaly
311.2781°
Eccentric anomaly
311.03568°
Mean motion
0.25068 °/min
Orbital period
1,436.11 mins
BSTAR
0
Loading maneuver chart data...
Computing Atmospheric mass density...
Loading historical data...
Loading historical data...
Loading historical data...
Loading historical data...
Loading historical data...
Loading historical data...
Loading historical data...
Other satellites on launch #21 in the year 2016 (2016-03-29 UTC)

Documentation

Showing up to 5 results
|